contact:dominique.lefevre@mio.osupytheas.fr, maurice.libes@osupytheas.fr, didier.mallarino@osupytheas.fr
Project:EMSO http://www.emso-fr.org/EMSO-France
Depth: 2436.0 m
Title:EMSO Ligure Ouest : Data MII capteur AQUADOPP
Date,Latitude,Longitude,X_East,Y_North,Z_Up,Amplitude_X,Amplitude_Y,Amplitude_Z,Batterie,SoundSpeed,Heading,Pitch,Roll,Pressure,TIS,Speed,Direction
, degrees North, degrees East, m.s-1, m.s-1,m.s-1, 1, 1, 1, Volt, m.s-1, degree, degree, degree, dbar, degree_C, m.s-1, degree
2022-10-29T00:04:03,42.805,6.029,0.002,0.024,-0.016,100.0,101.0,101.0,13.4,1505.2,323.4,-0.8,1.8,2471.136,13.29,0.024,4.8
2022-10-29T00:07:03,42.805,6.029,-0.014,0.033,0.003,100.0,101.0,100.0,13.4,1505.2,323.1,-0.7,1.8,2471.12,13.29,0.035,337.0
2022-10-29T00:10:03,42.805,6.029,0.013,0.003,-0.019,100.0,101.0,101.0,13.4,1505.2,323.6,-0.7,1.8,2471.135,13.29,0.013,77.0
2022-10-29T00:13:03,42.805,6.029,-0.007,0.017,0.013,102.0,102.0,100.0,13.3,1505.2,330.0,-0.8,1.8,2471.141,13.29,0.018,337.6
2022-10-29T00:16:03,42.805,6.029,-0.02,0.026,-0.007,103.0,101.0,99.0,13.3,1505.2,321.8,-0.8,1.8,2471.105,13.29,0.032,322.4
2022-10-29T00:19:03,42.805,6.029,-0.018,0.025,-0.004,100.0,101.0,101.0,13.4,1505.2,320.5,-0.8,1.9,2471.103,13.29,0.03,324.2
2022-10-29T00:22:03,42.805,6.029,-0.003,0.01,-0.035,101.0,101.0,100.0,13.4,1505.2,333.4,-0.8,1.8,2471.101,13.29,0.01,343.3
2022-10-29T00:25:03,42.805,6.029,-0.034,0.02,-0.028,101.0,101.0,101.0,13.4,1505.2,330.0,-0.8,1.8,2471.132,13.29,0.039,300.5
2022-10-29T00:28:03,42.805,6.029,-0.027,0.023,-0.027,100.0,101.0,100.0,13.4,1505.2,324.8,-0.8,1.8,2471.12,13.29,0.035,310.4
2022-10-29T00:31:03,42.805,6.029,-0.015,0.0,-0.022,101.0,101.0,101.0,13.4,1505.2,323.2,-0.8,1.8,2471.09,13.29,0.015,270.0
2022-10-29T00:34:03,42.805,6.029,-0.009,0.008,-0.027,102.0,102.0,98.0,13.4,1505.2,327.3,-0.8,1.8,2471.16,13.29,0.012,311.6
2022-10-29T00:37:03,42.805,6.029,-0.049,0.03,-0.036,101.0,101.0,100.0,13.4,1505.2,327.5,-0.7,1.8,2471.081,13.29,0.057,301.5
2022-10-29T00:40:03,42.805,6.029,-0.018,0.033,-0.027,101.0,102.0,100.0,13.3,1505.2,328.1,-0.7,1.8,2471.052,13.29,0.037,331.4
2022-10-29T00:43:03,42.805,6.029,-0.018,0.049,-0.002,101.0,101.0,100.0,13.4,1505.2,331.0,-0.7,1.8,2471.056,13.29,0.052,339.8
2022-10-29T00:46:03,42.805,6.029,-0.029,0.018,-0.018,101.0,101.0,100.0,13.4,1505.2,324.0,-0.7,1.8,2471.088,13.29,0.034,301.8
2022-10-29T00:49:03,42.805,6.029,-0.033,0.02,-0.032,100.0,102.0,100.0,13.4,1505.2,315.8,-0.7,1.8,2471.102,13.29,0.038,301.2
2022-10-29T00:52:03,42.805,6.029,-0.01,0.033,0.0,102.0,101.0,100.0,13.4,1505.2,326.1,-0.7,1.8,2471.113,13.29,0.034,343.1
2022-10-29T00:55:03,42.805,6.029,-0.023,0.024,0.006,100.0,101.0,100.0,13.4,1505.2,331.8,-0.8,1.8,2471.096,13.29,0.033,316.2
2022-10-29T00:58:03,42.805,6.029,-0.001,0.012,-0.018,101.0,101.0,100.0,13.4,1505.2,334.0,-0.7,1.8,2471.06,13.29,0.012,355.2
2022-10-29T01:04:03,42.805,6.029,-0.023,0.008,-0.026,103.0,102.0,103.0,13.4,1505.2,325.5,-0.8,1.9,2471.135,13.29,0.024,289.2
2022-10-29T01:07:03,42.805,6.029,-0.021,0.022,0.031,101.0,102.0,102.0,13.4,1505.2,330.3,-0.8,1.8,2471.118,13.29,0.03,316.3
2022-10-29T01:10:03,42.805,6.029,-0.008,0.01,-0.017,100.0,101.0,101.0,13.4,1505.2,317.1,-0.7,1.8,2471.119,13.29,0.012,321.3
2022-10-29T01:13:03,42.805,6.029,-0.006,0.004,-0.011,101.0,101.0,102.0,13.4,1505.2,332.2,-0.7,1.8,2471.084,13.29,0.007,303.7
2022-10-29T01:16:03,42.805,6.029,-0.019,0.035,0.005,101.0,101.0,100.0,13.3,1505.2,332.7,-0.8,1.8,2471.03,13.29,0.039,331.5
2022-10-29T01:19:03,42.805,6.029,-0.012,-0.005,-0.065,100.0,101.0,100.0,13.4,1505.2,325.3,-0.8,1.8,2471.059,13.29,0.013,247.4
2022-10-29T01:22:03,42.805,6.029,-0.038,0.038,0.012,102.0,101.0,100.0,13.3,1505.2,320.5,-0.7,1.8,2471.053,13.29,0.053,315.0
2022-10-29T01:25:03,42.805,6.029,-0.025,0.015,-0.033,101.0,101.0,101.0,13.4,1505.2,318.4,-0.7,1.8,2471.056,13.29,0.029,301.0
2022-10-29T01:28:03,42.805,6.029,-0.031,0.049,0.01,100.0,102.0,101.0,13.4,1505.2,329.2,-0.8,1.8,2471.107,13.29,0.057,327.7
2022-10-29T01:31:03,42.805,6.029,-0.011,0.01,-0.025,101.0,102.0,100.0,13.4,1505.2,326.8,-0.8,1.8,2471.06,13.29,0.014,312.3
2022-10-29T01:34:03,42.805,6.029,-0.003,0.011,-0.012,100.0,101.0,101.0,13.3,1505.2,330.8,-0.7,1.8,2471.039,13.29,0.011,344.7
2022-10-29T01:37:03,42.805,6.029,-0.024,0.046,-0.003,101.0,101.0,100.0,13.4,1505.2,334.3,-0.8,1.8,2471.052,13.29,0.051,332.4
2022-10-29T01:40:03,42.805,6.029,-0.063,0.044,0.004,101.0,100.0,100.0,13.4,1505.2,333.4,-0.7,1.8,2471.057,13.29,0.076,304.9
2022-10-29T01:43:03,42.805,6.029,-0.037,0.034,0.0,101.0,102.0,100.0,13.3,1505.2,332.4,-0.7,1.8,2471.039,13.29,0.05,312.6
2022-10-29T01:46:03,42.805,6.029,-0.026,0.018,-0.004,102.0,102.0,101.0,13.4,1505.2,326.1,-0.8,1.8,2471.065,13.29,0.031,304.7
2022-10-29T01:49:03,42.805,6.029,-0.04,0.045,0.004,102.0,101.0,99.0,13.4,1505.2,322.3,-0.7,1.8,2471.061,13.29,0.06,318.4
2022-10-29T01:52:03,42.805,6.029,-0.041,0.033,0.006,100.0,103.0,100.0,13.4,1505.2,316.7,-0.8,1.8,2471.041,13.29,0.052,308.8
2022-10-29T01:55:03,42.805,6.029,-0.024,0.028,-0.004,102.0,101.0,100.0,13.4,1505.2,328.2,-0.8,1.8,2471.021,13.29,0.036,319.4
2022-10-29T01:58:03,42.805,6.029,-0.004,0.004,-0.005,101.0,102.0,100.0,13.3,1505.2,324.2,-0.7,1.8,2471.079,13.29,0.005,315.0
2022-10-29T02:04:03,42.805,6.029,-0.033,0.042,0.008,101.0,102.0,100.0,13.3,1505.2,327.9,-0.7,1.9,2471.073,13.29,0.053,321.8
2022-10-29T02:07:03,42.805,6.029,-0.029,0.013,-0.028,102.0,102.0,100.0,13.4,1505.2,319.5,-0.8,1.8,2471.063,13.29,0.031,294.1
2022-10-29T02:10:03,42.805,6.029,-0.041,0.021,-0.014,101.0,101.0,100.0,13.4,1505.2,323.1,-0.7,1.8,2471.064,13.29,0.046,297.1
2022-10-29T02:13:03,42.805,6.029,-0.026,0.023,-0.032,100.0,103.0,101.0,13.4,1505.2,325.9,-0.7,1.8,2471.055,13.29,0.034,311.5
2022-10-29T02:16:03,42.805,6.029,-0.027,0.027,-0.01,101.0,101.0,100.0,13.4,1505.2,319.1,-0.8,1.8,2471.022,13.29,0.038,315.0
2022-10-29T02:19:03,42.805,6.029,-0.028,0.039,-0.012,100.0,102.0,101.0,13.4,1505.2,325.1,-0.8,1.8,2471.082,13.29,0.048,324.3
2022-10-29T02:22:03,42.805,6.029,-0.034,0.025,-0.019,101.0,101.0,100.0,13.4,1505.2,322.5,-0.8,1.8,2471.059,13.29,0.042,306.3
2022-10-29T02:25:03,42.805,6.029,-0.058,0.049,-0.03,101.0,102.0,100.0,13.4,1505.2,333.4,-0.8,1.8,2471.045,13.29,0.075,310.2
2022-10-29T02:28:03,42.805,6.029,-0.032,0.043,-0.004,102.0,103.0,99.0,13.4,1505.2,323.9,-0.8,1.8,2471.063,13.29,0.053,323.3
2022-10-29T02:31:03,42.805,6.029,-0.018,0.034,-0.015,101.0,102.0,100.0,13.4,1505.2,330.3,-0.7,1.8,2471.045,13.29,0.038,332.1
2022-10-29T02:34:03,42.805,6.029,-0.056,0.026,-0.015,101.0,102.0,101.0,13.4,1505.2,322.8,-0.8,1.8,2471.044,13.29,0.061,294.9
2022-10-29T02:37:03,42.805,6.029,-0.031,0.022,-0.009,102.0,102.0,100.0,13.3,1505.2,318.4,-0.8,1.8,2471.042,13.29,0.038,305.4
2022-10-29T02:40:03,42.805,6.029,-0.028,0.01,-0.009,101.0,102.0,100.0,13.4,1505.2,319.1,-0.7,1.8,2471.026,13.29,0.029,289.6
2022-10-29T02:43:03,42.805,6.029,-0.025,0.021,0.009,102.0,101.0,100.0,13.3,1505.2,318.8,-0.8,1.8,2471.02,13.29,0.032,310.0
2022-10-29T02:46:03,42.805,6.029,-0.016,0.043,-0.008,101.0,101.0,100.0,13.4,1505.2,327.5,-0.8,1.8,2471.037,13.29,0.045,339.6
2022-10-29T02:49:03,42.805,6.029,-0.045,0.03,0.019,102.0,102.0,100.0,13.4,1505.2,322.3,-0.7,1.8,2471.024,13.29,0.054,303.7
2022-10-29T02:52:03,42.805,6.029,-0.03,0.032,0.008,100.0,102.0,101.0,13.3,1505.2,317.2,-0.8,1.8,2471.072,13.29,0.043,316.9
2022-10-29T02:55:03,42.805,6.029,-0.033,0.024,0.025,102.0,103.0,99.0,13.4,1505.2,323.1,-0.7,1.8,2471.049,13.29,0.04,306.0
2022-10-29T02:58:03,42.805,6.029,-0.009,0.026,0.019,100.0,102.0,100.0,13.3,1505.2,318.9,-0.7,1.8,2471.028,13.29,0.027,340.9
2022-10-29T03:04:03,42.805,6.029,-0.032,0.008,-0.017,100.0,102.0,101.0,13.4,1505.2,326.1,-0.8,1.8,2471.052,13.29,0.032,284.0
2022-10-29T03:07:03,42.805,6.029,-0.024,0.03,-0.007,101.0,102.0,100.0,13.4,1505.2,317.1,-0.8,1.8,2471.066,13.29,0.038,321.3
2022-10-29T03:10:03,42.805,6.029,-0.028,0.034,0.016,101.0,102.0,100.0,13.4,1505.2,321.9,-0.8,1.8,2471.093,13.29,0.044,320.5
2022-10-29T03:13:03,42.805,6.029,-0.013,0.021,-0.019,102.0,101.0,100.0,13.4,1505.2,321.9,-0.8,1.8,2471.04,13.29,0.024,328.2
2022-10-29T03:16:03,42.805,6.029,-0.05,0.042,0.033,100.0,102.0,101.0,13.4,1505.2,320.9,-0.7,1.8,2471.038,13.29,0.065,310.0
2022-10-29T03:19:03,42.805,6.029,-0.033,0.049,-0.01,100.0,102.0,100.0,13.4,1505.2,331.6,-0.8,1.8,2471.032,13.29,0.059,326.0
2022-10-29T03:22:03,42.805,6.029,-0.018,0.041,-0.037,101.0,101.0,101.0,13.4,1505.2,330.7,-0.8,1.8,2471.042,13.29,0.044,336.3
2022-10-29T03:25:03,42.805,6.029,-0.032,0.044,-0.003,102.0,103.0,101.0,13.3,1505.2,330.0,-0.8,1.8,2471.056,13.29,0.054,324.0
2022-10-29T03:28:03,42.805,6.029,-0.022,0.014,-0.028,101.0,101.0,100.0,13.3,1505.2,326.1,-0.8,1.8,2470.995,13.29,0.026,302.5
2022-10-29T03:31:03,42.805,6.029,-0.004,-0.001,-0.048,102.0,102.0,100.0,13.4,1505.2,324.5,-0.7,1.8,2470.998,13.29,0.004,256.0
2022-10-29T03:34:03,42.805,6.029,-0.013,0.007,-0.026,102.0,101.0,100.0,13.4,1505.2,324.5,-0.8,1.8,2471.027,13.29,0.014,298.3
2022-10-29T03:37:03,42.805,6.029,-0.045,0.043,-0.014,101.0,102.0,100.0,13.3,1505.2,323.5,-0.8,1.8,2471.022,13.29,0.062,313.7
2022-10-29T03:40:03,42.805,6.029,-0.047,0.03,0.003,100.0,101.0,101.0,13.4,1505.2,322.7,-0.8,1.8,2471.006,13.29,0.055,302.6
2022-10-29T03:43:03,42.805,6.029,-0.02,0.012,-0.027,102.0,103.0,99.0,13.3,1505.2,327.8,-0.8,1.8,2471.02,13.29,0.023,301.0
2022-10-29T03:46:03,42.805,6.029,-0.008,0.021,0.01,101.0,101.0,100.0,13.4,1505.2,332.1,-0.7,1.8,2470.995,13.29,0.022,339.1
2022-10-29T03:49:03,42.805,6.029,-0.017,0.041,0.004,100.0,102.0,101.0,13.4,1505.2,321.4,-0.8,1.8,2471.037,13.29,0.044,337.5
2022-10-29T03:52:03,42.805,6.029,-0.019,0.015,-0.038,101.0,102.0,100.0,13.4,1505.2,332.8,-0.7,1.8,2471.022,13.29,0.024,308.3
2022-10-29T03:55:03,42.805,6.029,-0.025,0.029,-0.023,101.0,101.0,100.0,13.4,1505.2,324.5,-0.8,1.8,2471.031,13.29,0.038,319.2
2022-10-29T03:58:03,42.805,6.029,-0.021,0.052,-0.001,102.0,101.0,101.0,13.4,1505.2,328.5,-0.7,1.8,2471.023,13.29,0.056,338.0
2022-10-29T04:04:03,42.805,6.029,-0.053,0.04,-0.009,101.0,102.0,100.0,13.3,1505.2,328.4,-0.8,1.8,2471.054,13.29,0.066,307.0
2022-10-29T04:07:03,42.805,6.029,-0.031,0.029,-0.01,102.0,102.0,100.0,13.3,1505.2,328.6,-0.8,1.8,2471.05,13.29,0.042,313.1
2022-10-29T04:10:03,42.805,6.029,-0.022,0.02,0.018,101.0,102.0,101.0,13.3,1505.2,321.6,-0.8,1.8,2471.043,13.29,0.029,312.3
2022-10-29T04:13:03,42.805,6.029,-0.026,0.031,0.001,101.0,101.0,100.0,13.4,1505.2,318.4,-0.8,1.8,2471.037,13.29,0.04,320.0
2022-10-29T04:16:03,42.805,6.029,-0.013,0.035,-0.015,102.0,100.0,100.0,13.3,1505.2,323.4,-0.8,1.8,2471.032,13.29,0.037,339.6
2022-10-29T04:19:03,42.805,6.029,-0.034,0.038,0.024,101.0,102.0,100.0,13.4,1505.2,324.7,-0.8,1.8,2471.031,13.29,0.05,318.2
2022-10-29T04:22:03,42.805,6.029,-0.035,0.037,-0.025,101.0,102.0,99.0,13.3,1505.2,324.8,-0.8,1.8,2471.026,13.29,0.05,316.6
2022-10-29T04:25:03,42.805,6.029,-0.026,0.015,-0.029,101.0,101.0,100.0,13.3,1505.2,325.5,-0.7,1.8,2471.018,13.29,0.03,300.0
2022-10-29T04:28:03,42.805,6.029,-0.04,0.025,-0.021,102.0,101.0,101.0,13.4,1505.2,324.4,-0.8,1.8,2471.039,13.29,0.047,302.0
2022-10-29T04:31:03,42.805,6.029,-0.044,0.014,0.011,101.0,102.0,101.0,13.4,1505.2,316.3,-0.8,1.8,2471.013,13.29,0.046,287.6
2022-10-29T04:34:03,42.805,6.029,-0.04,0.004,-0.04,101.0,101.0,100.0,13.4,1505.2,328.4,-0.7,1.8,2471.029,13.29,0.04,275.7
2022-10-29T04:37:03,42.805,6.029,-0.033,0.044,0.002,102.0,102.0,101.0,13.3,1505.2,333.1,-0.8,1.8,2471.028,13.29,0.055,323.1
2022-10-29T04:40:03,42.805,6.029,-0.01,0.003,-0.033,101.0,101.0,101.0,13.3,1505.2,326.5,-0.7,1.8,2471.025,13.29,0.01,286.7
2022-10-29T04:43:03,42.805,6.029,-0.015,0.029,-0.004,101.0,102.0,100.0,13.4,1505.2,323.5,-0.7,1.9,2471.065,13.29,0.032,332.6
2022-10-29T04:46:03,42.805,6.029,-0.026,0.032,-0.007,101.0,101.0,100.0,13.4,1505.2,327.2,-0.7,1.8,2471.029,13.29,0.041,320.9
2022-10-29T04:49:03,42.805,6.029,-0.019,0.03,-0.001,100.0,101.0,101.0,13.3,1505.2,332.8,-0.8,1.8,2471.029,13.29,0.035,327.7
2022-10-29T04:52:03,42.805,6.029,0.005,0.023,0.029,100.0,102.0,101.0,13.4,1505.2,327.7,-0.8,1.8,2471.03,13.29,0.023,12.3
2022-10-29T04:55:03,42.805,6.029,-0.03,0.029,-0.016,103.0,102.0,99.0,13.4,1505.2,320.6,-0.7,1.8,2471.048,13.29,0.041,314.0
2022-10-29T04:58:03,42.805,6.029,-0.025,0.027,-0.003,100.0,102.0,101.0,13.3,1505.2,329.2,-0.8,1.8,2471.026,13.29,0.036,317.2
2022-10-29T05:04:03,42.805,6.029,-0.033,0.036,-0.002,101.0,102.0,100.0,13.4,1505.2,327.7,-0.8,1.8,2471.09,13.29,0.048,317.5
2022-10-29T05:07:03,42.805,6.029,-0.043,0.024,-0.038,101.0,102.0,100.0,13.3,1505.2,324.8,-0.8,1.9,2471.081,13.29,0.049,299.2
2022-10-29T05:10:03,42.805,6.029,-0.023,0.039,0.01,101.0,101.0,100.0,13.4,1505.2,326.9,-0.8,1.8,2471.058,13.29,0.045,329.5
2022-10-29T05:13:03,42.805,6.029,-0.03,0.038,-0.017,100.0,101.0,101.0,13.4,1505.2,318.0,-0.8,1.8,2471.068,13.29,0.048,321.7
2022-10-29T05:16:03,42.805,6.029,-0.034,0.031,0.017,100.0,102.0,99.0,13.4,1505.2,331.3,-0.8,1.9,2471.081,13.29,0.046,312.4
2022-10-29T05:19:03,42.805,6.029,-0.031,0.033,-0.036,100.0,101.0,102.0,13.4,1505.2,333.7,-0.8,1.8,2471.029,13.29,0.045,316.8
2022-10-29T05:22:03,42.805,6.029,0.011,0.007,-0.003,101.0,101.0,100.0,13.4,1505.2,323.1,-0.8,1.8,2471.054,13.29,0.013,57.5
2022-10-29T05:25:03,42.805,6.029,-0.043,0.014,0.007,101.0,102.0,100.0,13.3,1505.2,318.8,-0.7,1.9,2471.081,13.29,0.045,288.0
2022-10-29T05:28:03,42.805,6.029,-0.039,0.028,-0.003,102.0,102.0,100.0,13.4,1505.2,327.5,-0.8,1.8,2471.04,13.29,0.048,305.7
2022-10-29T05:31:03,42.805,6.029,-0.019,0.043,0.007,101.0,101.0,100.0,13.4,1505.2,326.5,-0.8,1.8,2471.081,13.29,0.047,336.2
2022-10-29T05:34:03,42.805,6.029,-0.031,0.019,-0.01,101.0,102.0,100.0,13.4,1505.2,318.0,-0.7,1.8,2471.024,13.29,0.036,301.5
2022-10-29T05:37:03,42.805,6.029,-0.029,0.034,-0.011,101.0,100.0,100.0,13.3,1505.2,333.4,-0.7,1.8,2471.03,13.29,0.044,319.5
2022-10-29T05:40:03,42.805,6.029,-0.02,0.02,-0.013,106.0,101.0,100.0,13.4,1505.2,322.5,-0.8,1.8,2471.086,13.29,0.028,315.0
2022-10-29T05:43:03,42.805,6.029,-0.048,0.025,-0.006,102.0,100.0,100.0,13.3,1505.2,328.7,-0.8,1.8,2471.044,13.29,0.054,297.5
2022-10-29T05:46:03,42.805,6.029,-0.032,0.054,0.003,103.0,101.0,100.0,13.4,1505.2,328.7,-0.8,1.8,2471.044,13.29,0.062,329.3
2022-10-29T05:49:03,42.805,6.029,-0.027,0.035,0.009,100.0,103.0,100.0,13.3,1505.2,317.1,-0.8,1.8,2471.069,13.29,0.044,322.3
2022-10-29T05:52:03,42.805,6.029,0.002,0.009,-0.022,100.0,102.0,101.0,13.4,1505.2,320.5,-0.8,1.8,2471.088,13.29,0.009,12.5
2022-10-29T05:55:03,42.805,6.029,-0.037,0.028,0.02,101.0,102.0,100.0,13.3,1505.2,328.7,-0.8,1.8,2471.084,13.29,0.046,307.1
2022-10-29T05:58:03,42.805,6.029,-0.011,0.02,0.001,101.0,101.0,100.0,13.4,1505.2,334.4,-0.8,1.8,2471.064,13.29,0.022,331.2
2022-10-29T06:04:03,42.805,6.029,-0.008,0.02,-0.031,101.0,102.0,100.0,13.4,1505.2,325.7,-0.8,1.8,2471.166,13.29,0.021,338.2
2022-10-29T06:07:03,42.805,6.029,-0.027,0.024,0.045,101.0,102.0,100.0,13.4,1505.2,317.6,-0.8,1.8,2471.117,13.29,0.036,311.6
2022-10-29T06:10:03,42.805,6.029,-0.015,0.02,0.003,101.0,102.0,100.0,13.4,1505.2,324.7,-0.7,1.8,2471.164,13.29,0.025,323.1
2022-10-29T06:13:03,42.805,6.029,-0.006,0.024,-0.02,102.0,101.0,100.0,13.4,1505.2,326.1,-0.7,1.8,2471.113,13.29,0.024,346.0
2022-10-29T06:16:03,42.805,6.029,-0.034,-0.003,-0.031,101.0,103.0,100.0,13.4,1505.2,324.7,-0.7,1.8,2471.144,13.29,0.034,265.0
2022-10-29T06:19:03,42.805,6.029,-0.037,0.028,-0.038,103.0,102.0,99.0,13.4,1505.2,318.8,-0.8,1.8,2471.121,13.29,0.046,307.1
2022-10-29T06:22:03,42.805,6.029,-0.043,0.029,-0.008,101.0,101.0,100.0,13.3,1505.2,318.8,-0.8,1.8,2471.154,13.29,0.051,304.0
2022-10-29T06:25:03,42.805,6.029,-0.015,0.037,-0.046,101.0,102.0,101.0,13.4,1505.2,324.4,-0.8,1.8,2471.1,13.29,0.039,337.9
2022-10-29T06:28:03,42.805,6.029,-0.018,0.04,-0.003,100.0,102.0,101.0,13.4,1505.2,329.2,-0.8,1.8,2471.117,13.29,0.043,335.8
2022-10-29T06:31:03,42.805,6.029,-0.032,0.004,-0.005,101.0,103.0,99.0,13.4,1505.2,320.1,-0.8,1.8,2471.144,13.29,0.032,277.1
2022-10-29T06:34:03,42.805,6.029,-0.017,0.037,0.026,101.0,102.0,100.0,13.4,1505.2,320.2,-0.8,1.8,2471.152,13.29,0.04,335.3
2022-10-29T06:37:03,42.805,6.029,-0.032,0.022,-0.037,100.0,102.0,99.0,13.3,1505.2,323.9,-0.8,1.8,2471.101,13.29,0.038,304.5
2022-10-29T06:40:03,42.805,6.029,-0.039,0.042,-0.03,100.0,102.0,101.0,13.4,1505.2,324.7,-0.8,1.8,2471.137,13.29,0.057,317.1
2022-10-29T06:43:03,42.805,6.029,-0.029,0.038,-0.009,100.0,102.0,100.0,13.3,1505.2,319.6,-0.8,1.8,2471.118,13.29,0.047,322.7
2022-10-29T06:46:03,42.805,6.029,-0.015,0.026,0.005,100.0,103.0,100.0,13.4,1505.2,334.0,-0.8,1.8,2471.158,13.29,0.03,330.0
2022-10-29T06:49:03,42.805,6.029,-0.038,0.05,0.0,101.0,102.0,101.0,13.4,1505.2,332.7,-0.7,1.8,2471.15,13.29,0.062,322.8
2022-10-29T06:52:03,42.805,6.029,-0.026,0.019,-0.036,101.0,101.0,100.0,13.3,1505.2,326.1,-0.8,1.8,2471.155,13.29,0.032,306.2
2022-10-29T06:55:03,42.805,6.029,-0.006,0.016,-0.018,103.0,102.0,100.0,13.4,1505.2,324.4,-0.8,1.8,2471.117,13.29,0.017,339.4
2022-10-29T06:58:03,42.805,6.029,-0.024,0.015,-0.028,101.0,102.0,100.0,13.4,1505.2,318.8,-0.8,1.8,2471.142,13.29,0.028,302.0
2022-10-29T07:04:03,42.805,6.029,-0.006,0.022,-0.016,101.0,101.0,100.0,13.4,1505.2,329.4,-0.7,1.8,2471.19,13.29,0.022,344.7
2022-10-29T07:07:03,42.805,6.029,-0.001,0.014,0.0,101.0,101.0,100.0,13.4,1505.2,329.1,-0.8,1.8,2471.199,13.29,0.014,355.9
2022-10-29T07:10:03,42.805,6.029,-0.026,0.006,-0.024,102.0,100.0,101.0,13.4,1505.2,328.8,-0.8,1.8,2471.158,13.29,0.026,283.0
2022-10-29T07:13:03,42.805,6.029,-0.037,0.035,0.005,102.0,101.0,101.0,13.4,1505.2,328.5,-0.8,1.8,2471.196,13.29,0.05,313.4
2022-10-29T07:16:03,42.805,6.029,-0.016,0.04,-0.019,101.0,102.0,100.0,13.4,1505.2,324.8,-0.7,1.8,2471.181,13.29,0.043,338.2
2022-10-29T07:19:03,42.805,6.029,-0.05,0.02,-0.006,101.0,101.0,101.0,13.4,1505.2,323.9,-0.8,1.8,2471.175,13.29,0.053,291.8
2022-10-29T07:22:03,42.805,6.029,-0.042,0.026,-0.038,100.0,102.0,101.0,13.3,1505.2,329.1,-0.7,1.8,2471.207,13.29,0.049,301.8
2022-10-29T07:25:03,42.805,6.029,-0.018,0.02,-0.022,101.0,102.0,100.0,13.4,1505.2,316.7,-0.8,1.8,2471.189,13.29,0.026,318.0
2022-10-29T07:28:03,42.805,6.029,-0.06,0.022,-0.028,101.0,102.0,100.0,13.4,1505.2,320.1,-0.7,1.9,2471.152,13.29,0.063,290.1
2022-10-29T07:31:03,42.805,6.029,-0.026,0.015,-0.008,102.0,103.0,100.0,13.4,1505.2,324.1,-0.8,1.8,2471.192,13.29,0.03,300.0
2022-10-29T07:34:03,42.805,6.029,-0.025,0.023,-0.042,102.0,101.0,100.0,13.3,1505.2,320.3,-0.8,1.8,2471.171,13.29,0.033,312.6
2022-10-29T07:37:03,42.805,6.029,-0.015,0.04,0.04,101.0,101.0,100.0,13.3,1505.2,333.4,-0.8,1.8,2471.191,13.29,0.042,339.4
2022-10-29T07:40:03,42.805,6.029,-0.017,0.009,-0.034,101.0,102.0,100.0,13.4,1505.2,331.8,-0.8,1.8,2471.221,13.29,0.019,297.9
2022-10-29T07:43:03,42.805,6.029,-0.021,0.038,-0.012,101.0,101.0,101.0,13.3,1505.2,332.4,-0.8,1.8,2471.222,13.29,0.043,331.1
2022-10-29T07:46:03,42.805,6.029,-0.001,0.012,-0.005,102.0,102.0,100.0,13.3,1505.2,320.2,-0.8,1.8,2471.209,13.29,0.012,355.2
2022-10-29T07:49:03,42.805,6.029,-0.008,0.02,0.009,101.0,101.0,100.0,13.4,1505.2,326.1,-0.7,1.8,2471.159,13.29,0.021,338.2
2022-10-29T07:52:03,42.805,6.029,-0.024,0.014,-0.016,105.0,101.0,100.0,13.3,1505.2,322.1,-0.8,1.8,2471.229,13.29,0.027,300.3
2022-10-29T07:55:03,42.805,6.029,-0.022,0.015,-0.023,101.0,101.0,100.0,13.4,1505.2,318.8,-0.8,1.8,2471.218,13.29,0.026,304.3
2022-10-29T07:58:03,42.805,6.029,-0.017,0.031,-0.002,101.0,102.0,100.0,13.3,1505.2,324.0,-0.8,1.8,2471.205,13.29,0.035,331.3
2022-10-29T08:04:03,42.805,6.029,-0.004,0.011,-0.032,101.0,102.0,100.0,13.4,1505.2,331.9,-0.8,1.8,2471.274,13.29,0.011,340.0
2022-10-29T08:07:03,42.805,6.029,-0.03,0.024,-0.001,100.0,102.0,100.0,13.4,1505.2,329.7,-0.8,1.8,2471.28,13.29,0.038,308.7
2022-10-29T08:10:03,42.805,6.029,-0.037,0.036,-0.015,101.0,102.0,100.0,13.4,1505.2,332.1,-0.8,1.8,2471.265,13.29,0.051,314.2
2022-10-29T08:13:03,42.805,6.029,-0.002,0.027,-0.01,101.0,103.0,100.0,13.4,1505.2,327.1,-0.8,1.8,2471.282,13.29,0.027,355.8
2022-10-29T08:16:03,42.805,6.029,-0.035,0.027,0.016,102.0,101.0,100.0,13.4,1505.2,328.9,-0.8,1.8,2471.288,13.29,0.044,307.7
2022-10-29T08:19:03,42.805,6.029,-0.019,0.04,-0.011,102.0,101.0,100.0,13.4,1505.2,332.7,-0.8,1.8,2471.25,13.29,0.044,334.6
2022-10-29T08:22:03,42.805,6.029,-0.029,0.0,-0.034,101.0,102.0,100.0,13.4,1505.2,317.1,-0.8,1.8,2471.226,13.29,0.028,270.0
2022-10-29T08:25:03,42.805,6.029,-0.027,0.045,-0.031,101.0,102.0,100.0,13.4,1505.2,329.0,-0.8,1.8,2471.233,13.29,0.052,329.0
2022-10-29T08:28:03,42.805,6.029,-0.024,0.027,-0.005,101.0,102.0,101.0,13.4,1505.2,321.9,-0.8,1.8,2471.277,13.29,0.036,318.4
2022-10-29T08:31:03,42.805,6.029,-0.04,0.029,-0.017,102.0,101.0,100.0,13.4,1505.2,329.1,-0.8,1.8,2471.239,13.29,0.049,305.9
2022-10-29T08:34:03,42.805,6.029,-0.022,0.025,-0.003,102.0,102.0,100.0,13.3,1505.2,321.8,-0.8,1.8,2471.266,13.29,0.033,318.7
2022-10-29T08:37:03,42.805,6.029,-0.007,0.008,-0.012,102.0,101.0,100.0,13.4,1505.2,323.3,-0.7,1.8,2471.238,13.29,0.01,318.8
2022-10-29T08:40:03,42.805,6.029,-0.034,0.025,0.002,100.0,101.0,100.0,13.4,1505.2,322.2,-0.8,1.8,2471.255,13.29,0.042,306.3
2022-10-29T08:43:03,42.805,6.029,-0.018,0.036,-0.003,101.0,101.0,100.0,13.4,1505.2,333.1,-0.8,1.8,2471.247,13.29,0.04,333.4
2022-10-29T08:46:03,42.805,6.029,-0.012,0.023,-0.007,102.0,101.0,101.0,13.4,1505.2,322.0,-0.7,1.8,2471.266,13.29,0.025,332.4
2022-10-29T08:49:03,42.805,6.029,-0.019,0.029,-0.024,101.0,101.0,100.0,13.4,1505.2,327.9,-0.8,1.8,2471.243,13.29,0.034,326.8
2022-10-29T08:52:03,42.805,6.029,-0.002,0.036,0.007,102.0,101.0,101.0,13.4,1505.2,325.4,-0.7,1.8,2471.239,13.29,0.036,356.8
2022-10-29T08:55:03,42.805,6.029,-0.01,0.024,-0.013,100.0,102.0,100.0,13.4,1505.2,329.1,-0.8,1.8,2471.247,13.29,0.026,337.4
2022-10-29T08:58:03,42.805,6.029,-0.019,0.042,0.01,101.0,102.0,100.0,13.4,1505.2,328.4,-0.8,1.8,2471.255,13.29,0.046,335.7
2022-10-29T09:04:03,42.805,6.029,-0.012,0.008,-0.007,101.0,102.0,100.0,13.4,1505.2,329.2,-0.8,1.8,2471.287,13.28,0.014,303.7
2022-10-29T09:07:03,42.805,6.029,-0.047,0.013,-0.023,101.0,101.0,100.0,13.4,1505.2,326.5,-0.7,1.8,2471.28,13.29,0.048,285.5
2022-10-29T09:10:03,42.805,6.029,-0.016,0.024,-0.038,102.0,101.0,100.0,13.4,1505.2,317.2,-0.8,1.8,2471.275,13.29,0.028,326.3
2022-10-29T09:13:03,42.805,6.029,-0.01,0.0,-0.05,100.0,101.0,101.0,13.4,1505.2,327.0,-0.8,1.8,2471.283,13.29,0.01,270.0
2022-10-29T09:16:03,42.805,6.029,-0.028,0.015,-0.032,102.0,101.0,100.0,13.3,1505.2,326.6,-0.8,1.8,2471.247,13.29,0.031,298.2
2022-10-29T09:19:03,42.805,6.029,0.003,0.013,-0.022,101.0,101.0,100.0,13.3,1505.2,329.0,-0.8,1.8,2471.27,13.29,0.013,13.0
2022-10-29T09:22:03,42.805,6.029,-0.025,0.028,-0.024,102.0,102.0,99.0,13.3,1505.2,332.7,-0.8,1.8,2471.259,13.29,0.037,318.2
2022-10-29T09:25:03,42.805,6.029,-0.021,0.026,-0.001,101.0,102.0,101.0,13.3,1505.2,328.9,-0.7,1.8,2471.247,13.29,0.033,321.1
2022-10-29T09:28:03,42.805,6.029,-0.001,0.035,-0.003,101.0,102.0,100.0,13.4,1505.2,324.1,-0.7,1.8,2471.268,13.29,0.035,358.4
2022-10-29T09:31:03,42.805,6.029,-0.05,0.029,0.003,101.0,102.0,100.0,13.3,1505.2,321.5,-0.8,1.8,2471.229,13.29,0.057,300.1
2022-10-29T09:34:03,42.805,6.029,-0.013,0.032,-0.007,101.0,102.0,100.0,13.3,1505.2,321.7,-0.8,1.8,2471.263,13.29,0.034,337.9
2022-10-29T09:37:03,42.805,6.029,-0.003,0.017,-0.018,101.0,102.0,100.0,13.4,1505.2,327.2,-0.8,1.9,2471.258,13.29,0.017,350.0
2022-10-29T09:40:03,42.805,6.029,-0.016,0.022,0.012,102.0,102.0,100.0,13.4,1505.2,316.7,-0.7,1.8,2471.217,13.29,0.027,324.0
2022-10-29T09:43:03,42.805,6.029,-0.024,0.038,-0.007,102.0,102.0,100.0,13.3,1505.2,320.9,-0.7,1.8,2471.254,13.29,0.044,327.7
2022-10-29T09:46:03,42.805,6.029,-0.026,0.017,-0.01,101.0,101.0,101.0,13.4,1505.2,327.7,-0.8,1.8,2471.241,13.29,0.031,303.2
2022-10-29T09:49:03,42.805,6.029,-0.01,0.03,-0.001,101.0,103.0,99.0,13.3,1505.2,320.2,-0.8,1.8,2471.259,13.29,0.031,341.6
2022-10-29T09:52:03,42.805,6.029,-0.018,0.017,-0.017,102.0,101.0,101.0,13.4,1505.2,332.4,-0.7,1.8,2471.222,13.29,0.024,313.4
2022-10-29T09:55:03,42.805,6.029,-0.016,0.007,-0.045,101.0,101.0,100.0,13.4,1505.2,332.7,-0.8,1.8,2471.249,13.29,0.017,293.6